Location: ????????
(48.4751°N, 37.6926°E)
Time: 03:17:28
(UTC+00:00)

ERS-2 - Pass Details

Date: 20 January 2021
Orbit: 492 x 497 km, 98.6° (Epoch: 24 February)

Event Time Altitude Azimuth Distance (km) Brightness Sun altitude
Exits shadow 16:07:08 28° 14° (NNE) 954 3.3 -19.2°
Maximum altitude 16:08:57 88° 290° (WNW) 500 2.0 -19.5°
Drops below altitude 10° 16:12:35 10° 197° (SSW) 1,683 5.1 -20.1°
Sets 16:14:38 0° 197° (SSW) 2,560 6.1 -20.4°
